| time (UTC) | temp C | wind direction | speed KPH | gust KPH | rain 1hr cm | rain 24hr cm | rain mn cm | humidity % | barometer mb |
| 20260906030218 | 22 | 43 | 8.0 | 8.0 | 0.00 | 0.00 | 0.00 | 90 | 1013.6 |
| 20260906025403 | 22 | 38 | 11.3 | 11.3 | 0.00 | 0.00 | 0.00 | 89 | 1013.7 |
| 20260906024504 | 22 | 32 | 9.7 | 11.3 | 0.00 | 0.00 | 0.00 | 89 | 1013.8 |
| 20260906023603 | 22 | 33 | 9.7 | 11.3 | 0.00 | 0.00 | 0.00 | 88 | 1013.9 |
| 20260906022703 | 22 | 39 | 8.0 | 12.9 | 0.00 | 0.00 | 0.00 | 88 | 1013.9 |
| 20260906022017 | 22 | 33 | 3.2 | 11.3 | 0.00 | 0.00 | 0.00 | 87 | 1013.9 |
| 20260906020903 | 22 | 36 | 0.0 | 9.7 | 0.00 | 0.00 | 0.00 | 87 | 1014.1 |
| 20260906020003 | 22 | 0 | 0.0 | 0.0 | 0.00 | 0.00 | 0.00 | 86 | 1014.1 |
| 20260906015403 | 22 | 0 | 0.0 | 1.6 | 0.00 | 0.00 | 0.00 | 86 | 1014.0 |
| 20260906014503 | 22 | 37 | 3.2 | 11.3 | 0.00 | 0.00 | 0.00 | 87 | 1014.0 |
| 20260906013603 | 22 | 43 | 1.6 | 11.3 | 0.00 | 0.00 | 0.00 | 87 | 1013.8 |
| 20260906012703 | 22 | 0 | 0.0 | 1.6 | 0.00 | 0.00 | 0.00 | 87 | 1013.6 |
| 20260906011803 | 22 | 46 | 0.0 | 11.3 | 0.00 | 0.00 | 0.00 | 87 | 1013.4 |
| 20260906010903 | 22 | 43 | 1.6 | 12.9 | 0.00 | 0.00 | 0.00 | 87 | 1013.4 |
| 20260906010218 | 22 | 36 | 14.5 | 22.5 | 0.00 | 0.00 | 0.00 | 86 | 1013.4 |
| 20260906005403 | 22 | 31 | 14.5 | 22.5 | 0.00 | 0.00 | 0.00 | 86 | 1013.3 |
| 20260906004503 | 22 | 36 | 1.6 | 9.7 | 0.00 | 0.00 | 0.00 | 87 | 1013.3 |
| 20260906003603 | 22 | 39 | 0.0 | 14.5 | 0.00 | 0.00 | 0.00 | 87 | 1013.2 |
| 20260906002703 | 22 | 33 | 3.2 | 16.1 | 0.00 | 0.00 | 0.00 | 86 | 1013.2 |
| 20260906001803 | 23 | 25 | 4.8 | 16.1 | 0.00 | 0.00 | 0.00 | 86 | 1013.0 |
| 20260906000903 | 23 | 26 | 11.3 | 22.5 | 0.00 | 0.00 | 0.00 | 86 | 1013.0 |
| 20260906000003 | 23 | 26 | 12.9 | 19.3 | 0.00 | 0.00 | 0.00 | 85 | 1012.9 |
| 20260905235403 | 23 | 31 | 14.5 | 14.5 | 0.00 | 0.00 | 0.00 | 85 | 1012.8 |
| 20260905234503 | 23 | 28 | 20.9 | 19.3 | 0.00 | 0.00 | 0.00 | 85 | 1012.8 |
| 20260905233604 | 23 | 26 | 22.5 | 20.9 | 0.00 | 0.00 | 0.00 | 85 | 1012.8 |
| 20260905232703 | 23 | 31 | 22.5 | 22.5 | 0.00 | 0.00 | 0.00 | 85 | 1012.8 |
| 20260905231804 | 23 | 33 | 20.9 | 22.5 | 0.00 | 0.00 | 0.00 | 85 | 1012.7 |
| 20260905230903 | 23 | 25 | 20.9 | 24.1 | 0.00 | 0.00 | 0.00 | 85 | 1012.7 |
| 20260905230003 | 23 | 33 | 20.9 | 24.1 | 0.00 | 0.00 | 0.00 | 84 | 1012.7 |
| 20260905225403 | 23 | 33 | 19.3 | 19.3 | 0.00 | 0.00 | 0.00 | 84 | 1012.8 |
| 20260905224503 | 24 | 34 | 22.5 | 24.1 | 0.00 | 0.00 | 0.00 | 83 | 1012.7 |
| 20260905223603 | 24 | 28 | 25.7 | 25.7 | 0.00 | 0.00 | 0.00 | 83 | 1012.7 |
| 20260905222703 | 24 | 26 | 27.4 | 25.7 | 0.00 | 0.00 | 0.00 | 83 | 1012.7 |
| 20260905221803 | 24 | 26 | 27.4 | 35.4 | 0.00 | 0.00 | 0.00 | 83 | 1012.7 |
| 20260905220903 | 24 | 31 | 24.1 | 22.5 | 0.00 | 0.00 | 0.00 | 83 | 1012.7 |
| 20260905220003 | 25 | 35 | 25.7 | 25.7 | 0.00 | 0.00 | 0.00 | 82 | 1012.7 |
| 20260905215403 | 25 | 39 | 22.5 | 25.7 | 0.00 | 0.00 | 0.00 | 80 | 1012.7 |
| 20260905214503 | 25 | 30 | 24.1 | 27.4 | 0.00 | 0.00 | 0.00 | 80 | 1012.5 |
| 20260905213816 | 25 | 20 | 24.1 | 24.1 | 0.00 | 0.00 | 0.00 | 80 | 1012.5 |
| 20260905212703 | 25 | 26 | 22.5 | 22.5 | 0.00 | 0.00 | 0.00 | 80 | 1012.4 |
| 20260905211803 | 25 | 31 | 20.9 | 25.7 | 0.00 | 0.00 | 0.00 | 80 | 1012.3 |
| 20260905211117 | 25 | 26 | 20.9 | 24.1 | 0.00 | 0.00 | 0.00 | 80 | 1012.3 |
| 20260905210003 | 25 | 17 | 29.0 | 29.0 | 0.00 | 0.00 | 0.00 | 80 | 1012.4 |
| 20260905205403 | 26 | 22 | 25.7 | 24.1 | 0.00 | 0.00 | 0.00 | 79 | 1012.4 |
| 20260905204503 | 26 | 27 | 27.4 | 27.4 | 0.00 | 0.00 | 0.00 | 79 | 1012.4 |
| 20260905203603 | 26 | 22 | 25.7 | 24.1 | 0.00 | 0.00 | 0.00 | 78 | 1012.3 |
| 20260905202917 | 26 | 32 | 24.1 | 25.7 | 0.00 | 0.00 | 0.00 | 77 | 1012.4 |
| 20260905201803 | 27 | 22 | 24.1 | 24.1 | 0.00 | 0.00 | 0.00 | 75 | 1012.3 |
| 20260905200903 | 27 | 21 | 24.1 | 22.5 | 0.00 | 0.00 | 0.00 | 74 | 1012.3 |
| 20260905200003 | 27 | 26 | 22.5 | 20.9 | 0.00 | 0.00 | 0.00 | 75 | 1012.4 |
| 20260905195617 | 28 | 20 | 22.5 | 22.5 | 0.00 | 0.00 | 0.00 | 74 | 1012.3 |
| 20260905194503 | 28 | 20 | 24.1 | 24.1 | 0.00 | 0.00 | 0.00 | 74 | 1012.2 |
| 20260905193603 | 28 | 18 | 19.3 | 25.7 | 0.00 | 0.00 | 0.00 | 75 | 1012.4 |
| 20260905192703 | 28 | 30 | 20.9 | 22.5 | 0.00 | 0.00 | 0.00 | 73 | 1012.4 |
| 20260905191803 | 28 | 12 | 24.1 | 24.1 | 0.00 | 0.00 | 0.00 | 73 | 1012.4 |
| 20260905190903 | 28 | 22 | 22.5 | 24.1 | 0.00 | 0.00 | 0.00 | 73 | 1012.4 |
| 20260905190003 | 28 | 20 | 24.1 | 24.1 | 0.00 | 0.00 | 0.00 | 74 | 1012.4 |
| 20260905185403 | 28 | 30 | 24.1 | 24.1 | 0.00 | 0.00 | 0.00 | 75 | 1012.4 |
| 20260905184503 | 28 | 19 | 20.9 | 22.5 | 0.00 | 0.00 | 0.00 | 74 | 1012.4 |
| 20260905183603 | 28 | 38 | 17.7 | 19.3 | 0.00 | 0.00 | 0.00 | 73 | 1012.3 |
| 20260905182703 | 29 | 25 | 17.7 | 17.7 | 0.00 | 0.00 | 0.00 | 73 | 1012.3 |
| 20260905181803 | 28 | 47 | 16.1 | 17.7 | 0.00 | 0.00 | 0.00 | 74 | 1012.3 |
| 20260905180903 | 28 | 35 | 19.3 | 20.9 | 0.00 | 0.00 | 0.00 | 74 | 1012.3 |
| 20260905180004 | 28 | 27 | 17.7 | 17.7 | 0.00 | 0.00 | 0.00 | 74 | 1012.3 |
| 20260905175404 | 28 | 34 | 19.3 | 19.3 | 0.00 | 0.00 | 0.00 | 75 | 1012.3 |
| 20260905174503 | 29 | 25 | 16.1 | 20.9 | 0.00 | 0.00 | 0.00 | 75 | 1012.2 |
| 20260905173603 | 29 | 38 | 17.7 | 19.3 | 0.00 | 0.00 | 0.00 | 75 | 1012.3 |
| 20260905172918 | 29 | 37 | 17.7 | 19.3 | 0.00 | 0.00 | 0.00 | 76 | 1012.3 |
| 20260905171804 | 28 | 41 | 14.5 | 16.1 | 0.00 | 0.00 | 0.00 | 79 | 1012.3 |
| 20260905170903 | 28 | 48 | 12.9 | 14.5 | 0.00 | 0.00 | 0.00 | 79 | 1012.4 |
| 20260905170003 | 28 | 43 | 16.1 | 16.1 | 0.00 | 0.00 | 0.00 | 79 | 1012.5 |
| 20260905165403 | 28 | 37 | 16.1 | 16.1 | 0.00 | 0.00 | 0.00 | 79 | 1012.6 |
| 20260905164503 | 28 | 27 | 16.1 | 16.1 | 0.00 | 0.00 | 0.00 | 79 | 1012.6 |
| 20260905163603 | 28 | 13 | 14.5 | 16.1 | 0.00 | 0.00 | 0.00 | 78 | 1012.7 |
| 20260905162703 | 28 | 46 | 9.7 | 12.9 | 0.00 | 0.00 | 0.00 | 80 | 1012.6 |
| 20260905161803 | 28 | 47 | 11.3 | 19.3 | 0.00 | 0.00 | 0.00 | 82 | 1012.6 |
| 20260905160903 | 28 | 45 | 12.9 | 19.3 | 0.00 | 0.00 | 0.00 | 82 | 1012.6 |
| 20260905160003 | 27 | 41 | 11.3 | 14.5 | 0.00 | 0.00 | 0.00 | 82 | 1012.5 |
| 20260905155403 | 27 | 40 | 14.5 | 16.1 | 0.00 | 0.00 | 0.00 | 83 | 1012.4 |
| 20260905154503 | 28 | 46 | 14.5 | 16.1 | 0.00 | 0.00 | 0.00 | 82 | 1012.4 |
| 20260905153603 | 27 | 39 | 14.5 | 14.5 | 0.00 | 0.00 | 0.00 | 82 | 1012.4 |
| 20260905152703 | 27 | 34 | 14.5 | 16.1 | 0.00 | 0.00 | 0.00 | 83 | 1012.4 |
| 20260905151803 | 27 | 36 | 16.1 | 16.1 | 0.00 | 0.00 | 0.00 | 84 | 1012.3 |
| 20260905150903 | 27 | 26 | 12.9 | 12.9 | 0.00 | 0.00 | 0.00 | 84 | 1012.3 |
| 20260905150004 | 27 | 38 | 12.9 | 14.5 | 0.00 | 0.00 | 0.00 | 83 | 1012.1 |
| 20260905145403 | 27 | 46 | 12.9 | 12.9 | 0.00 | 0.00 | 0.00 | 82 | 1012.0 |
| 20260905144503 | 28 | 34 | 14.5 | 16.1 | 0.00 | 0.00 | 0.00 | 82 | 1011.8 |
| 20260905143603 | 28 | 33 | 9.7 | 9.7 | 0.00 | 0.00 | 0.00 | 83 | 1011.6 |
| 20260905142703 | 28 | 24 | 9.7 | 12.9 | 0.00 | 0.00 | 0.00 | 83 | 1011.6 |
| 20260905141804 | 27 | 42 | 8.0 | 9.7 | 0.00 | 0.00 | 0.00 | 84 | 1011.6 |
| 20260905140903 | 27 | 12 | 9.7 | 11.3 | 0.00 | 0.00 | 0.00 | 86 | 1011.9 |
| 20260905140004 | 27 | 4 | 11.3 | 11.3 | 0.00 | 0.00 | 0.00 | 87 | 1012.0 |
| 20260905135617 | 27 | 7 | 12.9 | 11.3 | 0.00 | 0.00 | 0.00 | 87 | 1012.1 |
| 20260905134503 | 26 | 2 | 9.7 | 12.9 | 0.00 | 0.00 | 0.00 | 89 | 1012.0 |
| 20260905133604 | 26 | 18 | 8.0 | 9.7 | 0.00 | 0.00 | 0.00 | 90 | 1011.8 |
| 20260905132703 | 26 | 340 | 6.4 | 6.4 | 0.00 | 0.00 | 0.00 | 90 | 1011.8 |
| 20260905131803 | 25 | 306 | 3.2 | 4.8 | 0.00 | 0.00 | 0.00 | 91 | 1011.7 |
| 20260905130903 | 25 | 224 | 0.0 | 1.6 | 0.00 | 0.00 | 0.00 | 91 | 1011.7 |
| 20260905130003 | 25 | 225 | 0.0 | 1.6 | 0.00 | 0.00 | 0.00 | 92 | 1011.5 |
| 20260905125403 | 25 | 225 | 1.6 | 1.6 | 0.00 | 0.00 | 0.00 | 91 | 1011.6 |
| 20260905124503 | 25 | 225 | 0.0 | 1.6 | 0.00 | 0.00 | 0.00 | 91 | 1011.4 |
| 20260905123603 | 25 | 225 | 0.0 | 1.6 | 0.00 | 0.00 | 0.00 | 92 | 1011.3 |
| 20260905122917 | 24 | 225 | 0.0 | 1.6 | 0.00 | 0.00 | 0.00 | 92 | 1011.3 |
| 20260905121804 | 24 | 225 | 0.0 | 1.6 | 0.00 | 0.00 | 0.00 | 92 | 1011.2 |
| 20260905120903 | 24 | 225 | 0.0 | 1.6 | 0.00 | 0.00 | 0.00 | 92 | 1011.0 |
| 20260905120003 | 24 | 226 | 1.6 | 4.8 | 0.00 | 0.00 | 0.00 | 92 | 1010.9 |
| 20260905115618 | 24 | 227 | 3.2 | 4.8 | 0.00 | 0.00 | 0.00 | 92 | 1010.9 |
| 20260905114504 | 24 | 48 | 1.6 | 4.8 | 0.00 | 0.00 | 0.00 | 92 | 1010.8 |
| 20260905113603 | 24 | 48 | 0.0 | 1.6 | 0.00 | 0.00 | 0.00 | 93 | 1010.8 |
| 20260905112703 | 24 | 48 | 0.0 | 1.6 | 0.00 | 0.00 | 0.00 | 93 | 1010.8 |
| 20260905111804 | 24 | 48 | 0.0 | 1.6 | 0.00 | 0.00 | 0.00 | 93 | 1010.8 |
| 20260905110903 | 23 | 0 | 0.0 | 0.0 | 0.00 | 0.00 | 0.00 | 93 | 1010.8 |
| 20260905110003 | 23 | 0 | 0.0 | 0.0 | 0.00 | 0.00 | 0.00 | 93 | 1010.8 |
| 20260905105403 | 23 | 48 | 0.0 | 1.6 | 0.00 | 0.00 | 0.00 | 93 | 1010.8 |
| 20260905104717 | 23 | 48 | 0.0 | 1.6 | 0.00 | 0.00 | 0.00 | 93 | 1010.8 |
| 20260905103603 | 23 | 48 | 1.6 | 6.4 | 0.00 | 0.00 | 0.00 | 93 | 1010.9 |
| 20260905102703 | 23 | 48 | 0.0 | 1.6 | 0.00 | 0.00 | 0.00 | 93 | 1010.8 |
| 20260905101804 | 23 | 48 | 0.0 | 1.6 | 0.00 | 0.00 | 0.00 | 93 | 1010.8 |
| 20260905100903 | 23 | 0 | 0.0 | 1.6 | 0.00 | 0.00 | 0.00 | 93 | 1010.9 |
| 20260905100218 | 23 | 48 | 0.0 | 1.6 | 0.00 | 0.00 | 0.00 | 93 | 1010.9 |
| 20260905095617 | 23 | 48 | 0.0 | 1.6 | 0.00 | 0.00 | 0.00 | 93 | 1011.0 |
| 20260905094503 | 23 | 0 | 0.0 | 0.0 | 0.00 | 0.00 | 0.00 | 93 | 1010.8 |
| 20260905093818 | 23 | 0 | 0.0 | 1.6 | 0.00 | 0.00 | 0.00 | 93 | 1010.8 |
| 20260905092703 | 23 | 0 | 0.0 | 0.0 | 0.00 | 0.00 | 0.00 | 93 | 1010.9 |
| 20260905091804 | 23 | 0 | 0.0 | 0.0 | 0.00 | 0.00 | 0.00 | 93 | 1010.8 |
| 20260905090903 | 23 | 0 | 0.0 | 0.0 | 0.00 | 0.00 | 0.00 | 92 | 1010.9 |
| 20260905090003 | 24 | 34 | 1.6 | 3.2 | 0.00 | 0.00 | 0.00 | 92 | 1010.8 |
| 20260905085403 | 24 | 316 | 0.0 | 3.2 | 0.00 | 0.00 | 0.00 | 92 | 1010.9 |
| 20260905084503 | 24 | 0 | 0.0 | 0.0 | 0.00 | 0.00 | 0.00 | 92 | 1010.8 |
| 20260905083603 | 24 | 0 | 0.0 | 0.0 | 0.00 | 0.00 | 0.00 | 92 | 1010.9 |
| 20260905082703 | 24 | 0 | 0.0 | 0.0 | 0.00 | 0.00 | 0.00 | 92 | 1010.8 |
| 20260905082018 | 24 | 0 | 0.0 | 0.0 | 0.00 | 0.00 | 0.00 | 91 | 1010.8 |
| 20260905080903 | 25 | 0 | 0.0 | 0.0 | 0.00 | 0.00 | 0.00 | 91 | 1010.8 |
| 20260905080004 | 25 | 0 | 0.0 | 0.0 | 0.00 | 0.00 | 0.00 | 90 | 1010.7 |
| 20260905075403 | 25 | 302 | 0.0 | 1.6 | 0.00 | 0.00 | 0.00 | 90 | 1010.7 |
| 20260905074503 | 25 | 302 | 0.0 | 1.6 | 0.00 | 0.00 | 0.00 | 90 | 1010.6 |
| 20260905073603 | 25 | 302 | 0.0 | 1.6 | 0.00 | 0.00 | 0.00 | 90 | 1010.6 |
| 20260905072703 | 25 | 302 | 0.0 | 3.2 | 0.00 | 0.00 | 0.00 | 89 | 1010.5 |
| 20260905072018 | 25 | 0 | 0.0 | 0.0 | 0.00 | 0.00 | 0.00 | 89 | 1010.5 |
| 20260905070903 | 25 | 0 | 0.0 | 0.0 | 0.00 | 0.00 | 0.00 | 89 | 1010.5 |
| 20260905070003 | 25 | 0 | 0.0 | 0.0 | 0.00 | 0.00 | 0.00 | 89 | 1010.5 |
| 20260905065403 | 26 | 0 | 0.0 | 0.0 | 0.00 | 0.00 | 0.00 | 88 | 1010.6 |
| 20260905064503 | 26 | 0 | 0.0 | 0.0 | 0.00 | 0.00 | 0.00 | 88 | 1010.6 |
| 20260905063603 | 26 | 0 | 0.0 | 0.0 | 0.00 | 0.00 | 0.00 | 88 | 1010.7 |
| 20260905062703 | 26 | 0 | 0.0 | 0.0 | 0.00 | 0.00 | 0.00 | 89 | 1010.8 |
| 20260905061803 | 26 | 0 | 0.0 | 0.0 | 0.00 | 0.00 | 0.00 | 89 | 1010.8 |
| 20260905060903 | 26 | 0 | 0.0 | 0.0 | 0.00 | 0.00 | 0.00 | 89 | 1011.0 |
| 20260905060003 | 26 | 0 | 0.0 | 0.0 | 0.00 | 0.00 | 0.00 | 88 | 1010.9 |
| 20260905055403 | 26 | 0 | 0.0 | 0.0 | 0.00 | 0.00 | 0.00 | 89 | 1011.0 |
| 20260905054717 | 26 | 0 | 0.0 | 0.0 | 0.00 | 0.00 | 0.00 | 89 | 1011.2 |
| 20260905053603 | 26 | 0 | 0.0 | 0.0 | 0.00 | 0.00 | 0.00 | 88 | 1011.3 |
| 20260905052703 | 26 | 0 | 0.0 | 0.0 | 0.00 | 0.00 | 0.00 | 88 | 1011.3 |
| 20260905051804 | 26 | 302 | 0.0 | 1.6 | 0.00 | 0.00 | 0.00 | 88 | 1011.2 |
| 20260905050903 | 26 | 302 | 0.0 | 3.2 | 0.00 | 0.00 | 0.00 | 87 | 1011.1 |
| 20260905050004 | 26 | 302 | 0.0 | 3.2 | 0.00 | 0.00 | 0.00 | 88 | 1011.1 |
| 20260905045403 | 26 | 0 | 0.0 | 0.0 | 0.00 | 0.00 | 0.00 | 89 | 1011.2 |
| 20260905044717 | 26 | 0 | 0.0 | 0.0 | 0.00 | 0.00 | 0.00 | 88 | 1011.3 |
| 20260905043603 | 27 | 0 | 0.0 | 0.0 | 0.00 | 0.00 | 0.00 | 88 | 1011.4 |
| 20260905042917 | 27 | 302 | 0.0 | 1.6 | 0.00 | 0.00 | 0.00 | 87 | 1011.5 |
| 20260905041804 | 27 | 302 | 0.0 | 1.6 | 0.00 | 0.00 | 0.00 | 87 | 1011.4 |
| 20260905040903 | 27 | 302 | 0.0 | 1.6 | 0.00 | 0.00 | 0.00 | 87 | 1011.3 |
| 20260905040003 | 27 | 302 | 0.0 | 1.6 | 0.00 | 0.00 | 0.00 | 87 | 1011.3 |
| 20260905035403 | 27 | 0 | 0.0 | 1.6 | 0.00 | 0.00 | 0.00 | 87 | 1011.5 |
| 20260905034503 | 27 | 302 | 0.0 | 1.6 | 0.00 | 0.00 | 0.00 | 86 | 1011.6 |
| 20260905033603 | 27 | 302 | 0.0 | 1.6 | 0.00 | 0.00 | 0.00 | 86 | 1011.7 |
| 20260905032703 | 27 | 0 | 0.0 | 0.0 | 0.00 | 0.00 | 0.00 | 84 | 1011.7 |
| 20260905031803 | 27 | 0 | 0.0 | 0.0 | 0.00 | 0.00 | 0.00 | 84 | 1011.7 |
| 20260905030903 | 27 | 0 | 0.0 | 1.6 | 0.00 | 0.00 | 0.00 | 84 | 1011.7 |